Regional Weather Roundup
Issued by NWS

Home | Current Version | Previous Version | Graphics & Text | Print | Product List | Glossary On
Versions: 1 2 3 4 5 6 7 8 9 10 11 12 13 14 15 16 17 18 19 20 21 22 23 24 25 26 27 28 29 30 31 32 33 34 35 36 37 38 39 40 41 42 43 44 45 46 47 48 49 50
000
ASUS43 KMKX 161800
RWRWI

WISCONSIN REGIONAL WEATHER ROUNDUP
NATIONAL WEATHER SERVICE MILWAUKEE/SULLIVAN WI
100 PM CDT TUE SEP 16 2014

NOTE: "FAIR" INDICATES FEW OR NO CLOUDS BELOW 12,000 FEET WITH NO
SIGNIFICANT WEATHER AND/OR OBSTRUCTIONS TO VISIBILITY.

WIZ001-002-006>008-014>016-023>028-161900-
NORTHWEST WISCONSIN

CITY           SKY/WX    TMP DP  RH WIND       PRES   REMARKS
SUPERIOR ARPT  SUNNY     67  43  41 W12G18    30.04F
ASHLAND        SUNNY     66  44  45 SW12G20   30.05F
6HR MIN TEMP:  44; 6HR MAX TEMP:  66;

HAYWARD        SUNNY     63  40  42 SW12G21   30.09F
6HR MIN TEMP:  33; 6HR MAX TEMP:  63;

SIREN          SUNNY     63  40  43 W12G17    30.10F
RICE LAKE      SUNNY     62  38  40 SW8       30.14F
LADYSMITH      SUNNY     62  42  48 W8G17     30.13F
EAU CLAIRE     NOT AVBL
MENOMONIE      CLEAR     64  39  39 SW5       30.14F
NEW RICHMOND   SUNNY     64  39  39 W8G18     30.14S
OSCEOLA        SUNNY     64  42  43 SW8       30.15F
$$

WIZ003>005-009-010-017-018-161900-
NORTH CENTRAL WISCONSIN

CITY           SKY/WX    TMP DP  RH WIND       PRES   REMARKS
WOODRUFF       SUNNY     62  40  44 W12G17    30.07F
6HR MIN TEMP:  37; 6HR MAX TEMP:  62;

RHINELANDER    SUNNY     63  40  42 W15G22    30.09F
6HR MIN TEMP:  32; 6HR MAX TEMP:  63;

EAGLE RIVER    SUNNY     61  35  38 W10G22    30.06F
LAND O LAKES   SUNNY     62  38  41 SW10      30.06F
PHILLIPS       SUNNY     61  41  48 SW8G17    30.09F
TOMAHAWK       SUNNY     61  38  42 W6G20     30.11F
MEDFORD        SUNNY     60  40  48 W12       30.13F
MERRILL        PTSUNNY   62  42  48 W9G17     30.11F
$$

WIZ029-030-035-036-043>047-161900-
CENTRAL WISCONSIN

CITY           SKY/WX    TMP DP  RH WIND       PRES   REMARKS
WAUSAU         SUNNY     62  40  44 W15G24    30.11F
6HR MIN TEMP:  37; 6HR MAX TEMP:  63;

MOSINEE        NOT AVBL
MARSHFIELD     SUNNY     63  43  48 W13       30.13F
6HR MIN TEMP:  37; 6HR MAX TEMP:  63;

STEVENS POINT  SUNNY     60  40  47 W10       30.15F
WAUPACA        SUNNY     64  41  43 SW6       30.15F
WAUTOMA        NOT AVBL
WISC RAPIDS    SUNNY     63  40  42 W8        30.16F
6HR MIN TEMP:  35; 6HR MAX TEMP:  63;

CAMP DOUGLAS   NOT AVBL
$$

WIZ011>013-019>022-031-037>040-048>050-161900-
NORTHEAST WISCONSIN

CITY           SKY/WX    TMP DP  RH WIND       PRES   REMARKS
ANTIGO         SUNNY     60  42  51 W12       30.11F
STURGEON BAY   SUNNY     61  39  44 W10       30.11F
6HR MIN TEMP:  43; 6HR MAX TEMP:  61;

GREEN BAY      SUNNY     63  42  46 W8        30.12F
6HR MIN TEMP:  39; 6HR MAX TEMP:  64;

MANITOWOC      NOT AVBL
APPLETON       SUNNY     61  37  41 W9        30.14F
CLINTONVILLE   SUNNY     63  39  42 W8        30.13F
OSHKOSH        SUNNY     62  41  46 VRB5      30.14F
6HR MIN TEMP:  42; 6HR MAX TEMP:  62;

$$

WIZ032>034-041-042-053>061-161900-
SOUTHWEST WISCONSIN

CITY           SKY/WX    TMP DP  RH WIND       PRES   REMARKS
LA CROSSE      SUNNY     65  42  43 W8        30.16F
6HR MIN TEMP:  44; 6HR MAX TEMP:  65;

SPARTA         SUNNY     61  39  43 SW6       30.17F
VIROQUA        FAIR      61  40  46 W7        30.17F
BOSCOBEL       MOSUNNY   64  43  46 SW8       30.18F
6HR MIN TEMP:  43; 6HR MAX TEMP:  64;

PRAIRIE DU CHI PTSUNNY   62  40  44 SW6       30.18F
PLATTEVILLE    FAIR      61  43  52 NW6       30.20F
$$

WIZ056-057-062-063-064-067-068-161900-
SOUTH CENTRAL WISCONSIN

CITY           SKY/WX    TMP DP  RH WIND       PRES   REMARKS
BARABOO/DELLS  SUNNY     61  38  42 SW6       30.17F
LONE ROCK      NOT AVBL
WATERTOWN      SUNNY     61  42  49 SW6       30.16F
MADISON        MOSUNNY   60  39  45 VRB7      30.17F
6HR MIN TEMP:  37; 6HR MAX TEMP:  62;

MIDDLETON      FAIR      62  39  43 W5        30.18F
MONROE         SUNNY     61  39  44 NW8       30.19F
JANESVILLE     MOSUNNY   63  39  42 VRB5      30.17F
$$

WIZ051-052-058>065-066-070>072-161900-
SOUTHEAST WISCONSIN

CITY           SKY/WX    TMP DP  RH WIND       PRES   REMARKS
MILWAUKEE      MOSUNNY   61  37  41 CALM      30.17F
6HR MIN TEMP:  45; 6HR MAX TEMP:  62;

WAUKESHA       NOT AVBL
MILWAUKEE/TIMM SUNNY     61  36  39 W8        30.18S
RACINE         SUNNY     62  40  44 VRB6G21   30.18F
6HR MIN TEMP:  44; 6HR MAX TEMP:  62;

BURLINGTON     SUNNY     60  38  45 W6        30.18F
KENOSHA        SUNNY     61  42  49 W5        30.17F
6HR MIN TEMP:  41; 6HR MAX TEMP:  62;

FOND DU LAC    SUNNY     61  39  44 SW9       30.15F
6HR MIN TEMP:  37; 6HR MAX TEMP:  61;

SHEBOYGAN      SUNNY     61  38  42 W7        30.15F
6HR MIN TEMP:  38; 6HR MAX TEMP:  62;

WEST BEND      SUNNY     59  36  41 W8        30.17S
JUNEAU         SUNNY     58  40  49 W5        30.18F
$$

LSZ147-162-161900-
LAKE SUPERIOR

STATION/POSITION TIME  TEMP    WIND        PRES    WAVE
                       AIR SEA DIR/SP/G            HT/PER
                 (UTC) (F)     (DEG/KT/KT) (MB)    (FT/S)
W MID LAKE BUOY  1650   51 47  240/ 16/ 17 1015.4F   5/ 6
DEVILS ISLAND    1700   55     240/ 21/ 23 1016.2F
PORT WING        1700   62     240/ 10/ 15 1017.3F
SAXON HARBOR     1700   63     250/  7/ 14 1017.9
$$

LMZ867-665-643>646-161900-
LAKE MICHIGAN

STATION/POSITION TIME  TEMP    WIND        PRES    WAVE
                       AIR SEA DIR/SP/G            HT/PER
                 (UTC) (F)     (DEG/KT/KT) (MB)    (FT/S)
N MID LAKE BUOY  1650   54 59  220/ 12/ 14 1019.4F   1/ 3
NORTHPORT PIER   1700   61     200/  6/ 10 1019.0F
KEWAUNEE LAKESHO 1700   59     280/  6/ 11 1019.5F
SHEBOYGAN LAKESH 1700   57 51  290/  7/  9 1021.8F
PORT WASHINGTON  1740   62     270/  2/ 11 1021.7F
ATWATER BUOY     1700   58      50/  4/  6 1023.1F
MILWAUKEE LAKESH 1700   57     130/  5/  6   N/A
S MID LAKE BUOY  1650   58 64  310/  8/ 10 1022.4F   2/ 4
KENOSHA   LAKESH 1700   57      50/  5/  6 1022.0F
$$

TC  - TEMPERATURE IN CELSIUS
VSB - VISIBILITY IN STATUTE MILES
WCI - WIND CHILL INDEX
HX  - HEAT INDEX



USA.gov is the U.S. government's official web portal to all federal, state and local government web resources and services.